Location: Jackson
(42.2460°N, 84.4010°W)
Time: 19:27:29
(UTC-04:00)

Courier 1B Rocket - Pass Details

Date: 09 February 2026
Orbit: 920 x 1201 km, 28.2° (Epoch: 12 March)

Event Time Altitude Azimuth Distance (km) Brightness Sun altitude
Rises 02:22:38 0° 252° (WSW) 3,919 - -56.2°
Reaches altitude 10° 02:25:51 10° 240° (WSW) 3,004 - -55.8°
Maximum altitude 02:31:43 25° 188° (S) 2,133 - -55.0°
Drops below altitude 10° 02:37:48 10° 136° (SE) 3,111 - -54.2°
Sets 02:41:12 0° 124° (SE) 4,087 - -53.7°
